Wind_Speed
12 12 11 10 9 8 8 8 9 10 10 11 11 12 12 12 13 13 14 15 15 15 15 16 17 17 18 19 20 20 21 21 21 22 22 22 23 23 23 23 23 22 23
12 12 11 10 9 9 9 9 10 10 11 12 13 14 14 14 14 15 15 16 16 16 17 17 18 18 19 20 20 21 22 23 23 23 23 24 24 24 24 24 24 24 24
13 13 12 11 11 11 11 11 12 12 12 13 14 15 15 16 16 16 17 17 18 18 18 18 19 20 20 21 21 22 23 23 24 24 24 25 24 24 25 25 25 25 25
14 13 13 13 13 13 13 14 14 14 14 14 14 15 17 18 18 18 19 20 20 20 20 20 21 21 21 22 22 22 23 24 25 25 24 24 24 25 25 25 26 26 26
15 14 14 14 15 15 15 15 15 16 16 16 16 17 18 19 20 21 21 21 22 22 22 22 22 22 22 23 23 23 23 23 24 24 24 24 25 25 26 26 26 26 27
16 16 16 17 18 18 17 17 18 18 18 18 18 19 19 20 20 21 22 23 23 24 23 22 22 22 22 23 23 23 23 24 24 24 25 25 26 26 27 27 27 27 27
19 19 19 19 20 20 20 20 20 19 19 19 19 20 21 22 22 23 23 23 23 23 23 23 22 22 23 23 24 24 24 25 26 26 26 26 27 27 28 28 28 28 28
21 22 21 22 22 22 23 23 22 20 20 20 21 22 22 23 23 24 24 24 23 23 23 23 23 24 24 24 25 25 25 26 26 27 27 27 28 29 28 28 29 29 29
23 23 23 24 24 24 24 24 23 21 21 22 23 23 24 24 24 24 25 24 24 24 24 24 24 25 25 26 26 27 27 27 27 28 29 28 29 29 29 30 30 30 30
24 24 24 24 24 24 24 23 23 23 23 24 25 25 25 25 25 25 26 25 25 24 24 24 25 26 26 26 27 27 27 27 28 28 28 28 29 29 29 30 30 30 30
26 26 25 25 24 24 24 24 24 25 25 25 26 27 26 27 27 27 27 26 25 25 25 25 25 26 26 27 27 27 27 27 28 29 29 30 30 30 30 30 30 31 32
29 28 27 26 26 25 25 25 26 26 27 27 27 27 28 27 27 27 27 26 25 25 25 25 26 27 27 28 28 28 28 28 28 28 29 29 30 30 30 30 31 32 33
31 30 29 28 28 28 27 27 27 27 28 28 28 29 29 28 28 28 27 26 25 25 26 26 27 27 28 28 29 29 29 29 29 30 30 30 31 31 31 31 32 33 34
32 32 32 30 29 29 28 28 28 29 29 29 29 29 30 30 29 29 28 26 26 27 28 28 28 29 29 29 29 29 30 30 31 31 31 31 32 32 33 34 34 35 35
33 33 32 31 29 29 29 29 30 30 30 30 30 30 30 30 30 30 28 28 28 29 29 30 30 30 30 30 31 31 31 31 32 32 32 33 34 34 35 35 35 36 36
33 33 32 30 29 30 30 31 31 32 32 32 32 32 32 31 31 31 30 30 31 31 31 31 31 31 32 32 33 33 33 33 33 33 34 34 35 36 36 37 37 37 38
34 34 33 32 31 31 32 32 33 33 34 34 34 34 32 31 32 32 32 32 32 33 33 33 33 33 33 34 34 34 34 34 35 35 35 36 36 37 37 37 37 38 38
34 34 34 33 33 33 33 33 34 35 35 35 36 36 36 35 34 34 33 34 34 35 34 34 34 34 34 34 35 35 36 36 36 37 37 37 37 37 37 37 37 37 37
34 34 34 34 34 33 33 34 34 34 35 35 35 36 36 36 35 35 34 35 35 36 36 35 35 35 35 36 36 37 38 38 38 38 38 38 37 37 37 37 37 37 37
34 34 34 34 34 34 34 34 34 34 35 35 35 35 36 36 35 35 35 35 35 36 36 36 36 36 36 37 38 38 38 38 39 39 38 38 38 38 37 37 37 37 37
36 36 35 35 34 34 35 34 34 34 34 34 34 34 35 36 36 36 36 35 36 36 37 38 38 37 38 38 39 39 38 38 38 38 38 38 38 37 37 36 36 36 36
34 35 35 35 35 35 35 34 34 34 34 34 33 33 34 36 36 37 37 36 37 37 38 38 38 38 39 39 39 38 37 37 37 38 38 37 37 37 37 36 36 36 36
33 33 34 34 34 34 33 33 33 33 34 34 33 34 34 34 34 35 36 36 36 36 37 37 37 38 39 39 38 37 37 37 38 38 37 37 37 37 36 36 35 36 36
32 33 33 33 33 33 33 33 33 33 33 33 33 33 34 34 34 35 35 35 35 36 36 37 37 38 38 37 36 36 37 37 37 37 37 37 36 36 36 36 36 36 36
32 32 32 32 32 33 33 33 33 33 33 33 33 33 34 34 34 34 35 36 36 36 36 36 36 36 36 36 36 36 37 37 37 37 37 36 36 36 36 37 37 36 36
30 30 31 31 31 32 32 32 32 32 33 33 33 33 33 34 34 34 35 35 35 35 34 34 35 35 35 35 35 35 35 35 35 35 35 35 35 35 36 36 36 36 36
Wind_Direction
325 328 329 328 324 322 318 315 316 315 313 306 301 300 300 298 299 299 298 296 295 294 290 286 285 287 285 281 280 280 281 281 281 280 280 282 283 282 282 282 283 283 283
321 324 326 328 325 318 312 311 311 310 308 305 300 298 298 298 297 297 298 297 296 295 292 289 287 285 287 285 282 281 282 282 281 280 280 281 282 281 280 282 283 283 283
311 316 319 321 322 318 312 308 307 306 303 301 299 298 298 298 297 296 297 298 297 296 293 291 289 286 286 287 285 284 282 282 282 281 281 281 282 281 280 281 282 283 283
308 312 313 312 315 315 310 307 305 304 300 298 298 297 299 300 300 297 295 296 295 295 293 290 288 288 287 286 286 286 285 284 284 283 282 281 282 281 281 281 282 283 283
305 306 309 308 305 307 308 306 304 302 301 297 294 296 297 298 298 297 296 295 295 295 294 291 289 288 287 287 287 286 286 286 287 285 283 282 284 284 283 282 283 283 284
298 299 300 302 299 298 299 300 300 299 298 297 296 297 300 299 299 297 296 296 295 295 294 292 291 290 289 289 288 285 285 287 287 286 284 284 285 285 285 283 283 284 284
292 291 294 296 298 296 298 296 295 296 296 298 297 298 300 301 300 299 298 299 298 298 295 293 293 292 290 289 290 288 287 287 286 286 285 285 285 284 285 284 284 285 284
289 288 290 292 295 296 296 298 295 293 294 297 299 298 299 301 301 300 298 297 296 296 294 293 293 292 290 288 289 289 288 287 286 286 286 285 285 284 284 284 284 284 284
289 288 289 291 291 293 296 297 296 297 300 299 300 300 299 300 300 299 299 297 296 296 295 293 292 291 290 289 289 290 288 288 287 287 286 286 287 286 286 285 285 284 284
288 288 288 290 291 294 295 296 298 298 300 300 298 301 301 300 298 296 296 295 294 294 295 293 293 293 292 292 291 291 290 288 288 288 288 287 287 288 288 286 286 285 287
284 285 286 287 288 292 291 293 295 297 298 300 301 301 301 301 298 295 294 293 292 293 294 293 293 293 293 292 293 292 291 290 288 289 289 289 288 289 290 290 289 288 289
281 280 284 287 286 288 290 292 293 294 294 295 299 300 302 301 299 297 297 296 294 294 294 293 294 294 293 293 293 293 292 291 291 291 291 291 291 292 292 291 291 291 291
281 282 283 285 285 285 286 289 292 294 294 293 296 297 300 300 299 299 297 295 295 295 294 293 293 294 294 293 293 293 294 294 294 293 293 292 292 292 291 291 291 292 292
279 282 282 281 282 283 284 288 291 292 295 295 296 296 296 297 297 296 296 294 293 294 294 293 294 294 294 293 294 294 294 295 295 294 294 293 293 293 292 292 291 291 292
277 281 281 279 281 284 285 287 289 290 292 294 294 295 295 294 294 294 293 294 294 293 294 294 294 294 293 294 295 295 296 295 295 295 294 293 293 293 293 292 292 292 292
276 279 281 280 283 283 284 285 286 288 290 292 294 295 293 292 292 293 293 293 292 292 293 293 294 294 293 293 294 295 295 295 294 294 294 294 294 294 294 293 293 293 293
276 278 279 281 283 283 285 285 285 286 287 289 291 291 291 292 292 292 292 292 292 292 292 292 293 293 292 292 293 294 294 294 294 294 294 294 295 295 295 295 295 295 295
276 277 278 280 281 283 285 285 285 285 286 287 288 290 290 289 290 291 291 291 291 292 291 291 291 291 292 292 292 293 294 295 295 295 295 295 295 295 295 296 296 295 296
277 277 277 278 281 282 282 283 285 284 285 286 287 288 287 286 287 288 289 290 290 291 291 290 290 290 291 291 292 292 293 294 295 295 295 295 295 295 295 295 296 296 296
276 278 277 278 280 282 283 284 285 286 286 285 286 288 287 286 286 287 288 288 289 290 289 289 289 289 289 290 291 292 293 294 294 295 295 295 295 295 296 296 296 295 296
276 277 278 278 278 280 281 284 286 286 286 286 286 287 288 287 287 287 287 287 288 288 288 289 288 289 289 291 291 291 292 293 293 294 294 294 295 295 295 295 295 296 296
276 277 278 277 278 280 281 283 284 285 285 284 285 287 288 289 287 287 287 288 288 287 287 288 288 288 289 291 291 291 291 292 293 293 294 294 294 295 295 295 294 295 296
276 276 276 277 278 279 280 281 283 284 284 284 285 287 289 289 289 288 288 289 288 288 287 287 288 289 290 291 291 291 292 293 293 293 294 293 293 294 294 294 294 295 295
275 276 275 275 277 280 280 282 283 283 284 285 286 288 288 289 291 291 290 291 290 289 289 290 292 292 292 291 292 293 294 294 294 293 293 292 292 292 292 293 293 294 294
274 275 276 277 278 279 281 282 283 283 283 285 287 289 290 290 292 293 293 292 291 291 292 292 293 292 292 293 294 294 294 294 293 293 293 292 292 292 292 293 293 294 293
274 276 277 278 279 281 282 282 282 282 283 285 287 288 290 291 291 290 292 293 293 293 293 294 294 293 294 294 294 294 294 294 294 294 294 293 292 292 293 293 294 294 294
Height
5890 5889 5887 5885 5884 5883 5882 5881 5881 5880 5879 5878 5877 5876 5875 5874 5873 5871 5870 5869 5868 5866 5865 5864 5863 5862 5861 5860 5860 5859 5858 5858 5857 5856 5854 5853 5852 5851 5850 5848 5847 5846 5845
5888 5886 5885 5883 5882 5881 5880 5879 5878 5877 5876 5876 5875 5874 5873 5871 5870 5868 5867 5865 5864 5862 5861 5860 5858 5857 5856 5855 5854 5853 5853 5852 5851 5850 5849 5847 5846 5844 5843 5842 5841 5840 5839
5885 5884 5883 5881 5880 5879 5878 5877 5876 5874 5874 5873 5872 5870 5869 5868 5866 5865 5863 5862 5860 5858 5856 5855 5854 5852 5851 5850 5849 5848 5847 5845 5844 5843 5842 5841 5839 5838 5837 5836 5835 5834 5832
5883 5881 5881 5879 5878 5877 5876 5875 5873 5872 5871 5869 5868 5867 5865 5864 5862 5861 5859 5857 5855 5854 5852 5850 5849 5847 5846 5845 5844 5842 5841 5839 5838 5837 5835 5834 5833 5831 5830 5829 5828 5827 5825
5880 5879 5878 5877 5875 5874 5873 5871 5870 5869 5868 5866 5865 5863 5861 5859 5858 5856 5854 5852 5850 5848 5846 5845 5843 5842 5840 5839 5838 5837 5835 5834 5832 5830 5829 5828 5827 5825 5824 5822 5821 5819 5818
5877 5876 5874 5873 5872 5870 5869 5868 5866 5865 5864 5862 5860 5859 5857 5855 5853 5851 5849 5847 5845 5843 5841 5839 5838 5836 5834 5833 5832 5830 5829 5828 5826 5824 5823 5821 5820 5818 5817 5815 5813 5812 5810
5873 5872 5871 5870 5868 5866 5865 5863 5862 5860 5859 5858 5856 5854 5852 5850 5848 5845 5843 5841 5839 5837 5835 5833 5832 5830 5828 5827 5825 5823 5822 5821 5819 5818 5816 5815 5813 5811 5809 5808 5806 5804 5803
5869 5868 5867 5865 5864 5862 5861 5859 5857 5855 5854 5852 5851 5849 5847 5845 5842 5840 5837 5835 5833 5831 5829 5828 5826 5824 5822 5821 5819 5817 5815 5814 5812 5810 5809 5807 5805 5803 5802 5800 5798 5796 5794
5863 5862 5861 5860 5858 5857 5856 5853 5852 5850 5848 5846 5845 5843 5841 5838 5836 5833 5831 5829 5827 5825 5823 5821 5820 5818 5816 5814 5813 5811 5808 5806 5804 5803 5801 5799 5797 5795 5794 5792 5790 5788 5786
5857 5856 5854 5853 5852 5851 5850 5848 5846 5844 5843 5841 5839 5837 5834 5832 5829 5827 5824 5822 5820 5819 5816 5814 5813 5811 5809 5807 5806 5803 5801 5799 5797 5795 5793 5791 5789 5787 5785 5783 5781 5779 5777
5850 5849 5848 5846 5845 5844 5843 5842 5840 5838 5836 5834 5832 5830 5827 5825 5822 5820 5818 5816 5814 5812 5810 5808 5806 5804 5802 5801 5798 5796 5794 5792 5790 5788 5786 5784 5781 5779 5777 5774 5772 5770 5768
5842 5841 5840 5839 5838 5837 5836 5834 5833 5831 5829 5827 5826 5824 5821 5818 5816 5813 5811 5809 5807 5805 5803 5801 5799 5797 5795 5793 5791 5789 5787 5785 5783 5780 5778 5776 5773 5771 5769 5766 5764 5762 5759
5833 5833 5832 5831 5830 5829 5828 5827 5825 5823 5822 5820 5818 5816 5814 5812 5809 5806 5804 5802 5800 5798 5796 5794 5792 5790 5788 5786 5784 5782 5779 5777 5775 5772 5770 5768 5765 5763 5760 5758 5755 5752 5750
5825 5824 5823 5822 5821 5820 5819 5818 5817 5816 5814 5812 5811 5809 5806 5804 5802 5799 5797 5795 5793 5791 5789 5787 5785 5782 5780 5777 5775 5773 5771 5769 5766 5764 5761 5759 5756 5754 5751 5748 5745 5743 5740
5816 5815 5813 5812 5812 5812 5811 5810 5809 5807 5805 5804 5802 5800 5798 5796 5794 5792 5789 5787 5785 5783 5781 5779 5777 5774 5772 5769 5767 5765 5762 5760 5757 5755 5752 5750 5747 5744 5741 5738 5735 5732 5730
5806 5806 5804 5802 5802 5802 5802 5801 5799 5798 5797 5795 5793 5792 5789 5787 5785 5783 5781 5779 5777 5775 5773 5770 5768 5766 5763 5761 5759 5756 5753 5751 5748 5745 5743 5740 5737 5734 5731 5728 5725 5722 5719
5796 5796 5795 5794 5793 5792 5791 5791 5790 5789 5787 5786 5784 5783 5781 5779 5777 5774 5772 5770 5768 5766 5763 5761 5759 5756 5754 5752 5749 5747 5744 5741 5738 5735 5732 5729 5726 5723 5720 5717 5714 5711 5707
5785 5785 5785 5784 5783 5782 5782 5781 5780 5779 5778 5776 5775 5773 5771 5769 5767 5765 5763 5761 5759 5756 5754 5751 5749 5746 5744 5742 5739 5737 5734 5731 5728 5725 5722 5719 5715 5712 5709 5706 5703 5700 5696
5775 5775 5774 5773 5773 5772 5771 5771 5769 5768 5767 5766 5764 5762 5760 5758 5756 5754 5753 5751 5748 5746 5744 5741 5739 5736 5734 5732 5729 5726 5723 5720 5717 5714 5711 5708 5704 5701 5698 5695 5692 5688 5685
5765 5765 5764 5763 5763 5762 5761 5760 5759 5758 5756 5755 5753 5751 5749 5747 5745 5744 5742 5740 5738 5735 5733 5731 5728 5726 5723 5720 5718 5715 5712 5709 5706 5702 5699 5696 5693 5690 5687 5684 5680 5677 5674
5755 5755 5754 5753 5752 5751 5751 5750 5748 5747 5746 5744 5742 5741 5739 5737 5735 5733 5731 5729 5727 5724 5722 5719 5717 5714 5712 5709 5706 5703 5700 5697 5694 5691 5688 5685 5682 5679 5676 5673 5670 5667 5664
5745 5744 5743 5742 5741 5741 5740 5739 5738 5737 5735 5734 5732 5730 5728 5726 5724 5722 5719 5718 5715 5713 5710 5708 5706 5703 5700 5697 5694 5691 5689 5686 5683 5680 5677 5674 5671 5668 5665 5662 5659 5656 5653
5734 5733 5732 5731 5731 5730 5729 5728 5727 5726 5725 5723 5721 5719 5717 5715 5713 5710 5708 5706 5703 5701 5698 5696 5694 5691 5689 5686 5683 5680 5677 5674 5671 5668 5666 5663 5660 5657 5654 5651 5648 5645 5642
5724 5723 5722 5721 5721 5720 5719 5718 5717 5716 5714 5713 5711 5709 5707 5704 5702 5700 5697 5695 5693 5690 5688 5685 5683 5680 5677 5674 5671 5669 5666 5663 5660 5657 5654 5651 5648 5645 5643 5640 5637 5634 5631
5714 5713 5712 5711 5711 5710 5709 5708 5707 5705 5704 5702 5700 5698 5696 5694 5692 5689 5687 5685 5682 5680 5677 5674 5672 5669 5666 5663 5660 5657 5654 5651 5648 5645 5642 5640 5637 5634 5631 5628 5626 5623 5620
5705 5704 5703 5702 5701 5700 5699 5697 5696 5694 5693 5692 5690 5688 5686 5684 5681 5679 5677 5674 5672 5669 5667 5664 5661 5658 5655 5653 5650 5646 5643 5640 5637 5634 5631 5629 5626 5623 5620 5617 5614 5611 5608